PPCAW SBGR-SBLE

Flight info

Callsign PPCAW
Flight time 3h 4m
Altitude 25000
Route NUXEL UZ23 ILPIR UZ72 EDNES UN866 EKERA
Aircraft BE9L/L-SDFGRY/S

Departure

Time 2026-05-05 12:55
Airport São Paulo/Guarulhos–Governor André Franco Montoro International Airport (SBGR)

Arrival

Time 2026-05-05 16:00
Airport Coronel Horácio de Mattos Airport (SBLE)
Time Latitude Longitude Altitude Speed Heading
2026-05-05 12:49 -23.43987 -46.48089 2468 ft 0 kts 345°
2026-05-05 12:53 -23.43985 -46.48090 2468 ft 2 kts 344°
2026-05-05 12:53 -23.43937 -46.48123 2465 ft 12 kts 308°
2026-05-05 12:53 -23.43895 -46.48186 2461 ft 16 kts 323°
2026-05-05 12:53 -23.43793 -46.48210 2459 ft 19 kts 346°
2026-05-05 12:54 -23.43485 -46.48306 2448 ft 26 kts 358°
2026-05-05 12:54 -23.43383 -46.48179 2447 ft 34 kts 76°
2026-05-05 12:54 -23.43255 -46.47704 2448 ft 93 kts 73°
2026-05-05 12:55 -23.43040 -46.46904 2480 ft 120 kts 74°
2026-05-05 12:55 -23.42837 -46.46088 2906 ft 110 kts 73°
2026-05-05 12:55 -23.42634 -46.45223 3113 ft 131 kts 73°
2026-05-05 12:55 -23.42344 -46.44193 3333 ft 150 kts 72°
2026-05-05 12:56 -23.42022 -46.43098 3720 ft 154 kts 71°
2026-05-05 12:56 -23.41699 -46.42019 4286 ft 149 kts 71°
2026-05-05 12:56 -23.41381 -46.40959 4796 ft 147 kts 71°
2026-05-05 12:56 -23.41067 -46.39911 5268 ft 148 kts 70°
2026-05-05 12:57 -23.40750 -46.38853 5710 ft 150 kts 70°
2026-05-05 12:57 -23.40418 -46.37765 6141 ft 153 kts 70°
2026-05-05 12:57 -23.40087 -46.36651 6577 ft 155 kts 70°
2026-05-05 12:57 -23.39615 -46.35620 7002 ft 156 kts 56°
2026-05-05 12:58 -23.39032 -46.34636 7424 ft 157 kts 57°
2026-05-05 12:58 -23.38443 -46.33616 7816 ft 159 kts 58°
2026-05-05 12:58 -23.37851 -46.32597 8209 ft 161 kts 58°
2026-05-05 12:58 -23.37260 -46.31573 8600 ft 162 kts 59°
2026-05-05 12:59 -23.36653 -46.30525 8987 ft 163 kts 59°
2026-05-05 12:59 -23.36053 -46.29487 9356 ft 164 kts 59°
2026-05-05 12:59 -23.35444 -46.28436 9710 ft 165 kts 59°
2026-05-05 13:00 -23.34213 -46.26309 10425 ft 168 kts 59°
2026-05-05 13:00 -23.33592 -46.25237 10771 ft 170 kts 59°
2026-05-05 13:01 -23.31684 -46.21944 11773 ft 173 kts 59°
2026-05-05 13:01 -23.31045 -46.20843 12063 ft 174 kts 59°
2026-05-05 13:01 -23.30400 -46.19733 12337 ft 176 kts 59°
2026-05-05 13:01 -23.29741 -46.18596 12635 ft 177 kts 59°
2026-05-05 13:02 -23.29087 -46.17468 12921 ft 178 kts 59°
2026-05-05 13:02 -23.28419 -46.16317 13190 ft 179 kts 59°
2026-05-05 13:02 -23.27753 -46.15172 13465 ft 180 kts 59°
2026-05-05 13:02 -23.27085 -46.14019 13747 ft 181 kts 59°
2026-05-05 13:03 -23.26411 -46.12859 14035 ft 182 kts 59°
2026-05-05 13:03 -23.25735 -46.11697 14309 ft 184 kts 59°
2026-05-05 13:03 -23.25052 -46.10522 14568 ft 184 kts 59°
2026-05-05 13:03 -23.24367 -46.09346 14826 ft 185 kts 59°
2026-05-05 13:04 -23.23675 -46.08156 15084 ft 186 kts 60°
2026-05-05 13:04 -23.22986 -46.06971 15326 ft 187 kts 59°
2026-05-05 13:04 -23.22295 -46.05783 15572 ft 187 kts 60°
2026-05-05 13:04 -23.21597 -46.04591 15814 ft 188 kts 58°
2026-05-05 13:05 -23.20571 -46.03718 16035 ft 191 kts 21°
2026-05-05 13:05 -23.19301 -46.03247 16240 ft 193 kts 20°
2026-05-05 13:05 -23.18045 -46.02761 16452 ft 193 kts 20°
2026-05-05 13:05 -23.16771 -46.02271 16674 ft 194 kts 20°
2026-05-05 13:06 -23.15488 -46.01777 16879 ft 195 kts 20°
2026-05-05 13:06 -23.14198 -46.01281 17099 ft 196 kts 20°
2026-05-05 13:06 -23.12915 -46.00790 17308 ft 197 kts 19°
2026-05-05 13:06 -23.11563 -46.00510 17515 ft 198 kts
2026-05-05 13:07 -23.10181 -46.00350 17711 ft 199 kts
2026-05-05 13:07 -23.08813 -46.00186 17908 ft 199 kts
2026-05-05 13:07 -23.07420 -46.00017 18100 ft 199 kts
2026-05-05 13:07 -23.06033 -45.99850 18294 ft 200 kts
2026-05-05 13:08 -23.04635 -45.99680 18477 ft 201 kts
2026-05-05 13:08 -23.03257 -45.99511 18659 ft 202 kts
2026-05-05 13:08 -23.01854 -45.99341 18836 ft 202 kts
2026-05-05 13:08 -23.00445 -45.99169 19019 ft 203 kts
2026-05-05 13:09 -22.99041 -45.98998 19175 ft 205 kts
2026-05-05 13:09 -22.97614 -45.98824 19342 ft 206 kts
2026-05-05 13:09 -22.96173 -45.98648 19522 ft 206 kts
2026-05-05 13:09 -22.94749 -45.98474 19699 ft 206 kts
2026-05-05 13:10 -22.93318 -45.98299 19855 ft 208 kts
2026-05-05 13:10 -22.91869 -45.98123 20016 ft 208 kts
2026-05-05 13:10 -22.90433 -45.97948 20182 ft 209 kts
2026-05-05 13:10 -22.88972 -45.97770 20343 ft 209 kts
2026-05-05 13:11 -22.87552 -45.97452 20499 ft 209 kts 14°
2026-05-05 13:11 -22.86117 -45.97076 20639 ft 210 kts 13°
2026-05-05 13:11 -22.84701 -45.96711 20778 ft 210 kts 13°
2026-05-05 13:11 -22.83263 -45.96340 20914 ft 211 kts 14°
2026-05-05 13:12 -22.81835 -45.95970 21053 ft 211 kts 14°
2026-05-05 13:12 -22.80397 -45.95599 21192 ft 212 kts 14°
2026-05-05 13:12 -22.78959 -45.95227 21308 ft 213 kts 14°
2026-05-05 13:12 -22.77510 -45.94851 21439 ft 213 kts 14°
2026-05-05 13:13 -22.76070 -45.94479 21562 ft 214 kts 14°
2026-05-05 13:13 -22.74605 -45.94101 21683 ft 215 kts 14°
2026-05-05 13:13 -22.73154 -45.93727 21794 ft 216 kts 14°
2026-05-05 13:13 -22.71686 -45.93348 21910 ft 216 kts 14°
2026-05-05 13:14 -22.70202 -45.92966 22038 ft 216 kts 14°
2026-05-05 13:14 -22.68745 -45.92591 22146 ft 217 kts 14°
2026-05-05 13:14 -22.67263 -45.92208 22253 ft 218 kts 14°
2026-05-05 13:14 -22.65785 -45.91826 22380 ft 218 kts 14°
2026-05-05 13:15 -22.64303 -45.91444 22503 ft 217 kts 14°
2026-05-05 13:15 -22.62823 -45.91062 22597 ft 219 kts 14°
2026-05-05 13:15 -22.61343 -45.90683 22705 ft 219 kts 14°
2026-05-05 13:15 -22.59847 -45.90297 22801 ft 220 kts 14°
2026-05-05 13:16 -22.58355 -45.89912 22919 ft 220 kts 14°
2026-05-05 13:16 -22.56866 -45.89529 23015 ft 221 kts 14°
2026-05-05 13:16 -22.55344 -45.89137 23109 ft 223 kts 13°
2026-05-05 13:16 -22.53849 -45.88752 23225 ft 222 kts 13°
2026-05-05 13:17 -22.52329 -45.88362 23324 ft 223 kts 13°
2026-05-05 13:17 -22.50815 -45.87971 23426 ft 223 kts 13°
2026-05-05 13:17 -22.49305 -45.87584 23528 ft 224 kts 13°
2026-05-05 13:17 -22.47777 -45.87191 23624 ft 224 kts 13°
2026-05-05 13:18 -22.46265 -45.86802 23723 ft 225 kts 13°
2026-05-05 13:18 -22.44729 -45.86408 23816 ft 225 kts 13°
2026-05-05 13:18 -22.43209 -45.86017 23900 ft 226 kts 13°
2026-05-05 13:18 -22.41661 -45.85619 23990 ft 227 kts 13°
2026-05-05 13:19 -22.40132 -45.85227 24102 ft 226 kts 13°
2026-05-05 13:19 -22.38607 -45.84835 24192 ft 227 kts 12°
2026-05-05 13:19 -22.37048 -45.84436 24267 ft 228 kts 12°
2026-05-05 13:19 -22.35516 -45.84043 24353 ft 228 kts 13°
2026-05-05 13:20 -22.33954 -45.83644 24452 ft 228 kts 12°
2026-05-05 13:20 -22.32421 -45.83249 24528 ft 229 kts 12°
2026-05-05 13:20 -22.30843 -45.82845 24603 ft 230 kts 12°
2026-05-05 13:20 -22.29298 -45.82448 24689 ft 230 kts 12°
2026-05-05 13:21 -22.27716 -45.82118 24778 ft 229 kts
2026-05-05 13:21 -22.26223 -45.81617 24811 ft 230 kts 40°
2026-05-05 13:21 -22.25195 -45.80300 24887 ft 228 kts 54°
2026-05-05 13:21 -22.24126 -45.79005 24958 ft 230 kts 47°
2026-05-05 13:22 -22.22971 -45.77809 25024 ft 231 kts 44°
2026-05-05 13:22 -22.21759 -45.76654 25116 ft 231 kts 42°
2026-05-05 13:22 -22.20533 -45.75539 25197 ft 231 kts 41°
2026-05-05 13:22 -22.19300 -45.74443 25275 ft 231 kts 40°
2026-05-05 13:23 -22.18035 -45.73335 25325 ft 233 kts 40°
2026-05-05 13:23 -22.16762 -45.72227 25328 ft 237 kts 40°
2026-05-05 13:23 -22.15477 -45.71114 25331 ft 240 kts 40°
2026-05-05 13:23 -22.14168 -45.69981 25337 ft 243 kts 40°
2026-05-05 13:24 -22.12827 -45.68822 25335 ft 245 kts 40°
2026-05-05 13:24 -22.11483 -45.67662 25333 ft 248 kts 40°
2026-05-05 13:24 -22.10139 -45.66502 25336 ft 250 kts 40°
2026-05-05 13:24 -22.08776 -45.65326 25334 ft 252 kts 40°
2026-05-05 13:25 -22.07413 -45.64151 25333 ft 253 kts 40°
2026-05-05 13:25 -22.06023 -45.62952 25338 ft 254 kts 40°
2026-05-05 13:25 -22.04636 -45.61756 25338 ft 256 kts 40°
2026-05-05 13:25 -22.03239 -45.60552 25339 ft 257 kts 40°
2026-05-05 13:26 -22.01841 -45.59350 25341 ft 257 kts 40°
2026-05-05 13:26 -22.00447 -45.58150 25342 ft 258 kts 40°
2026-05-05 13:26 -21.99053 -45.56947 25346 ft 258 kts 40°
2026-05-05 13:26 -21.97643 -45.55734 25344 ft 259 kts 40°
2026-05-05 13:27 -21.96227 -45.54518 25342 ft 259 kts 40°
2026-05-05 13:27 -21.94822 -45.53308 25343 ft 260 kts 40°
2026-05-05 13:27 -21.93400 -45.52086 25343 ft 260 kts 40°
2026-05-05 13:27 -21.91979 -45.50863 25344 ft 260 kts 40°
2026-05-05 13:28 -21.90567 -45.49650 25341 ft 261 kts 40°
2026-05-05 13:28 -21.89140 -45.48423 25336 ft 261 kts 40°
2026-05-05 13:28 -21.87732 -45.47214 25331 ft 261 kts 40°
2026-05-05 13:28 -21.86292 -45.45978 25332 ft 261 kts 40°
2026-05-05 13:29 -21.84882 -45.44766 25331 ft 261 kts 40°
2026-05-05 13:29 -21.83459 -45.43545 25332 ft 261 kts 40°
2026-05-05 13:29 -21.82030 -45.42319 25329 ft 261 kts 40°
2026-05-05 13:29 -21.80606 -45.41098 25326 ft 261 kts 40°
2026-05-05 13:30 -21.79193 -45.39885 25326 ft 261 kts 40°
2026-05-05 13:30 -21.77764 -45.38658 25326 ft 261 kts 40°
2026-05-05 13:30 -21.76354 -45.37451 25326 ft 261 kts 40°
2026-05-05 13:30 -21.74927 -45.36226 25325 ft 261 kts 40°
2026-05-05 13:31 -21.73519 -45.35020 25324 ft 261 kts 40°
2026-05-05 13:31 -21.72092 -45.33797 25324 ft 261 kts 39°
2026-05-05 13:31 -21.70672 -45.32582 25322 ft 261 kts 39°
2026-05-05 13:31 -21.69230 -45.31348 25323 ft 261 kts 39°
2026-05-05 13:32 -21.67819 -45.30140 25322 ft 260 kts 39°
2026-05-05 13:32 -21.66404 -45.28929 25321 ft 260 kts 39°
2026-05-05 13:32 -21.64977 -45.27708 25321 ft 260 kts 39°
2026-05-05 13:32 -21.63569 -45.26505 25321 ft 260 kts 39°
2026-05-05 13:33 -21.62145 -45.25286 25322 ft 260 kts 40°
2026-05-05 13:33 -21.60735 -45.24082 25323 ft 260 kts 39°
2026-05-05 13:33 -21.59319 -45.22870 25323 ft 260 kts 39°
2026-05-05 13:33 -21.57887 -45.21648 25324 ft 260 kts 39°
2026-05-05 13:34 -21.56481 -45.20446 25322 ft 261 kts 39°
2026-05-05 13:34 -21.55044 -45.19220 25324 ft 261 kts 39°
2026-05-05 13:34 -21.53625 -45.18006 25324 ft 261 kts 39°
2026-05-05 13:34 -21.52213 -45.16803 25322 ft 261 kts 39°
2026-05-05 13:35 -21.50771 -45.15572 25322 ft 261 kts 39°
2026-05-05 13:35 -21.49348 -45.14357 25323 ft 261 kts 39°
2026-05-05 13:35 -21.47937 -45.13155 25321 ft 261 kts 39°
2026-05-05 13:35 -21.46512 -45.11940 25319 ft 261 kts 39°
2026-05-05 13:36 -21.45087 -45.10725 25315 ft 262 kts 39°
2026-05-05 13:36 -21.43644 -45.09496 25314 ft 262 kts 39°
2026-05-05 13:36 -21.42221 -45.08282 25312 ft 262 kts 39°
2026-05-05 13:36 -21.40797 -45.07070 25313 ft 262 kts 39°
2026-05-05 13:37 -21.39366 -45.05852 25311 ft 262 kts 39°
2026-05-05 13:37 -21.37951 -45.04647 25307 ft 262 kts 39°
2026-05-05 13:37 -21.36513 -45.03424 25312 ft 262 kts 39°
2026-05-05 13:37 -21.35086 -45.02210 25310 ft 262 kts 39°
2026-05-05 13:38 -21.33650 -45.00986 25308 ft 262 kts 39°
2026-05-05 13:38 -21.32232 -44.99779 25309 ft 262 kts 39°
2026-05-05 13:38 -21.30802 -44.98566 25307 ft 262 kts 39°
2026-05-05 13:38 -21.29379 -44.97357 25312 ft 262 kts 39°
2026-05-05 13:39 -21.27946 -44.96139 25309 ft 262 kts 39°
2026-05-05 13:39 -21.26514 -44.94921 25309 ft 262 kts 39°
2026-05-05 13:39 -21.25073 -44.93697 25304 ft 262 kts 39°
2026-05-05 13:39 -21.23638 -44.92478 25305 ft 262 kts 39°
2026-05-05 13:40 -21.22215 -44.91269 25304 ft 262 kts 39°
2026-05-05 13:40 -21.20791 -44.90061 25302 ft 262 kts 39°
2026-05-05 13:40 -21.19340 -44.88831 25304 ft 262 kts 39°
2026-05-05 13:40 -21.17910 -44.87618 25303 ft 262 kts 39°
2026-05-05 13:41 -21.16481 -44.86406 25305 ft 262 kts 39°
2026-05-05 13:41 -21.15061 -44.85201 25303 ft 262 kts 39°
2026-05-05 13:41 -21.13618 -44.83978 25305 ft 262 kts 39°
2026-05-05 13:41 -21.12189 -44.82767 25304 ft 263 kts 39°
2026-05-05 13:42 -21.10746 -44.81544 25307 ft 263 kts 39°
2026-05-05 13:42 -21.09320 -44.80336 25307 ft 263 kts 39°
2026-05-05 13:42 -21.07877 -44.79114 25311 ft 263 kts 39°
2026-05-05 13:42 -21.06435 -44.77894 25307 ft 263 kts 39°
2026-05-05 13:43 -21.04994 -44.76687 25310 ft 263 kts 37°
2026-05-05 13:43 -21.03499 -44.75541 25311 ft 263 kts 36°
2026-05-05 13:43 -21.02019 -44.74411 25317 ft 263 kts 36°
2026-05-05 13:43 -21.00536 -44.73277 25320 ft 263 kts 36°
2026-05-05 13:44 -20.99025 -44.72122 25317 ft 263 kts 36°
2026-05-05 13:44 -20.97537 -44.70985 25321 ft 263 kts 36°
2026-05-05 13:44 -20.96051 -44.69850 25322 ft 263 kts 36°
2026-05-05 13:44 -20.94562 -44.68713 25319 ft 264 kts 36°
2026-05-05 13:45 -20.93060 -44.67566 25324 ft 264 kts 36°
2026-05-05 13:45 -20.91573 -44.66431 25321 ft 264 kts 36°
2026-05-05 13:45 -20.90065 -44.65280 25324 ft 264 kts 36°
2026-05-05 13:45 -20.88580 -44.64146 25319 ft 264 kts 36°
2026-05-05 13:46 -20.87082 -44.63005 25324 ft 263 kts 36°
2026-05-05 13:46 -20.85579 -44.61859 25326 ft 263 kts 36°
2026-05-05 13:46 -20.84086 -44.60719 25327 ft 263 kts 36°
2026-05-05 13:46 -20.82582 -44.59573 25327 ft 263 kts 36°
2026-05-05 13:47 -20.81103 -44.58445 25330 ft 263 kts 36°
2026-05-05 13:47 -20.79613 -44.57309 25332 ft 263 kts 36°
2026-05-05 13:47 -20.78130 -44.56180 25335 ft 263 kts 36°
2026-05-05 13:47 -20.76632 -44.55037 25338 ft 262 kts 36°
2026-05-05 13:48 -20.75134 -44.53894 25343 ft 262 kts 36°
2026-05-05 13:48 -20.73667 -44.52777 25342 ft 263 kts 36°
2026-05-05 13:48 -20.72174 -44.51640 25340 ft 263 kts 36°
2026-05-05 13:48 -20.70681 -44.50503 25340 ft 263 kts 36°
2026-05-05 13:49 -20.69197 -44.49373 25337 ft 263 kts 36°
2026-05-05 13:49 -20.67687 -44.48224 25337 ft 263 kts 36°
2026-05-05 13:49 -20.66204 -44.47095 25336 ft 263 kts 36°
2026-05-05 13:49 -20.64718 -44.45965 25333 ft 264 kts 36°
2026-05-05 13:50 -20.63215 -44.44821 25330 ft 264 kts 35°
2026-05-05 13:50 -20.61715 -44.43681 25328 ft 264 kts 35°
2026-05-05 13:50 -20.60231 -44.42553 25327 ft 264 kts 35°
2026-05-05 13:50 -20.58731 -44.41413 25329 ft 264 kts 35°
2026-05-05 13:51 -20.57219 -44.40264 25327 ft 264 kts 35°
2026-05-05 13:51 -20.55718 -44.39124 25327 ft 264 kts 35°
2026-05-05 13:51 -20.54234 -44.37997 25326 ft 264 kts 35°
2026-05-05 13:51 -20.52728 -44.36855 25330 ft 264 kts 35°
2026-05-05 13:52 -20.51214 -44.35706 25323 ft 265 kts 36°
2026-05-05 13:52 -20.49726 -44.34575 25324 ft 265 kts 35°
2026-05-05 13:52 -20.48220 -44.33433 25321 ft 264 kts 35°
2026-05-05 13:52 -20.46710 -44.32287 25321 ft 264 kts 35°
2026-05-05 13:53 -20.45206 -44.31144 25319 ft 264 kts 34°
2026-05-05 13:53 -20.43719 -44.30012 25321 ft 264 kts 36°
2026-05-05 13:53 -20.42249 -44.28846 25322 ft 264 kts 36°
2026-05-05 13:53 -20.40772 -44.27674 25320 ft 264 kts 36°
2026-05-05 13:54 -20.39314 -44.26514 25321 ft 264 kts 36°
2026-05-05 13:54 -20.37829 -44.25337 25325 ft 264 kts 36°
2026-05-05 13:54 -20.36362 -44.24174 25325 ft 264 kts 36°
2026-05-05 13:54 -20.34881 -44.22998 25328 ft 264 kts 36°
2026-05-05 13:55 -20.33408 -44.21830 25325 ft 264 kts 36°
2026-05-05 13:55 -20.31934 -44.20663 25327 ft 264 kts 36°
2026-05-05 13:55 -20.30454 -44.19490 25327 ft 264 kts 36°
2026-05-05 13:55 -20.28988 -44.18327 25330 ft 264 kts 36°
2026-05-05 13:56 -20.27521 -44.17165 25331 ft 264 kts 36°
2026-05-05 13:56 -20.26038 -44.15991 25329 ft 264 kts 36°
2026-05-05 13:56 -20.24561 -44.14822 25326 ft 264 kts 36°
2026-05-05 13:56 -20.23084 -44.13652 25326 ft 264 kts 36°
2026-05-05 13:57 -20.21607 -44.12484 25323 ft 265 kts 36°
2026-05-05 13:57 -20.20124 -44.11309 25318 ft 265 kts 36°
2026-05-05 13:57 -20.18664 -44.10153 25315 ft 265 kts 36°
2026-05-05 13:57 -20.17167 -44.08969 25320 ft 264 kts 36°
2026-05-05 13:58 -20.15691 -44.07801 25321 ft 264 kts 36°
2026-05-05 13:58 -20.14228 -44.06645 25319 ft 265 kts 36°
2026-05-05 13:58 -20.12731 -44.05461 25320 ft 265 kts 35°
2026-05-05 13:58 -20.11257 -44.04298 25323 ft 265 kts 35°
2026-05-05 13:59 -20.08303 -44.01967 25325 ft 265 kts 35°
2026-05-05 13:59 -20.06821 -44.00802 25329 ft 265 kts 35°
2026-05-05 14:00 -20.03844 -43.98459 25335 ft 265 kts 36°
2026-05-05 14:00 -20.02861 -43.97683 25332 ft 265 kts 36°
2026-05-05 14:00 -20.00871 -43.96115 25329 ft 265 kts 36°
2026-05-05 14:00 -19.99885 -43.95338 25330 ft 265 kts 36°
2026-05-05 14:01 -19.97903 -43.93780 25329 ft 265 kts 36°
2026-05-05 14:01 -19.96409 -43.92604 25327 ft 265 kts 35°
2026-05-05 14:01 -19.94940 -43.91448 25326 ft 266 kts 36°
2026-05-05 14:01 -19.93440 -43.90270 25325 ft 265 kts 36°
2026-05-05 14:02 -19.91955 -43.89103 25326 ft 265 kts 35°
2026-05-05 14:02 -19.90457 -43.87926 25324 ft 265 kts 36°
2026-05-05 14:02 -19.88980 -43.86765 25318 ft 265 kts 35°
2026-05-05 14:02 -19.87483 -43.85588 25319 ft 265 kts 35°
2026-05-05 14:03 -19.85997 -43.84421 25315 ft 265 kts 35°
2026-05-05 14:03 -19.84474 -43.83288 25315 ft 265 kts 32°
2026-05-05 14:03 -19.82949 -43.82187 25316 ft 265 kts 33°
2026-05-05 14:03 -19.81427 -43.81086 25314 ft 265 kts 33°
2026-05-05 14:04 -19.80411 -43.80350 25311 ft 265 kts 33°
2026-05-05 14:04 -19.78387 -43.78884 25313 ft 265 kts 33°
2026-05-05 14:04 -19.76863 -43.77779 25308 ft 265 kts 33°
2026-05-05 14:04 -19.75348 -43.76680 25309 ft 265 kts 33°
2026-05-05 14:05 -19.73806 -43.75564 25307 ft 265 kts 33°
2026-05-05 14:05 -19.72282 -43.74459 25309 ft 265 kts 33°
2026-05-05 14:05 -19.70758 -43.73357 25310 ft 265 kts 33°
2026-05-05 14:05 -19.69248 -43.72265 25309 ft 265 kts 32°
2026-05-05 14:06 -19.67724 -43.71162 25310 ft 265 kts 33°
2026-05-05 14:06 -19.66202 -43.70060 25307 ft 265 kts 33°
2026-05-05 14:06 -19.64670 -43.68954 25307 ft 264 kts 33°
2026-05-05 14:06 -19.63152 -43.67857 25305 ft 265 kts 33°
2026-05-05 14:07 -19.61620 -43.66748 25304 ft 264 kts 32°
2026-05-05 14:07 -19.60103 -43.65650 25308 ft 264 kts 32°
2026-05-05 14:07 -19.58594 -43.64561 25312 ft 264 kts 32°
2026-05-05 14:07 -19.57058 -43.63454 25312 ft 265 kts 32°
2026-05-05 14:08 -19.55547 -43.62362 25304 ft 265 kts 32°
2026-05-05 14:08 -19.54007 -43.61250 25304 ft 265 kts 32°
2026-05-05 14:08 -19.52492 -43.60157 25304 ft 265 kts 32°
2026-05-05 14:08 -19.50951 -43.59044 25302 ft 265 kts 32°
2026-05-05 14:09 -19.49429 -43.57946 25302 ft 265 kts 32°
2026-05-05 14:09 -19.47894 -43.56839 25304 ft 265 kts 32°
2026-05-05 14:09 -19.46384 -43.55749 25299 ft 265 kts 32°
2026-05-05 14:09 -19.44850 -43.54643 25300 ft 265 kts 32°
2026-05-05 14:10 -19.43320 -43.53540 25304 ft 265 kts 32°
2026-05-05 14:10 -19.42294 -43.52800 25304 ft 266 kts 32°
2026-05-05 14:10 -19.40256 -43.51334 25304 ft 266 kts 32°
2026-05-05 14:10 -19.38727 -43.50232 25304 ft 266 kts 32°
2026-05-05 14:11 -19.37189 -43.49124 25304 ft 266 kts 32°
2026-05-05 14:11 -19.35665 -43.48026 25302 ft 266 kts 32°
2026-05-05 14:11 -19.34145 -43.46933 25301 ft 266 kts 32°
2026-05-05 14:11 -19.32609 -43.45827 25301 ft 266 kts 32°
2026-05-05 14:12 -19.31048 -43.44752 25292 ft 264 kts 24°
2026-05-05 14:12 -19.29344 -43.44092 25304 ft 261 kts 14°
2026-05-05 14:12 -19.28197 -43.43696 25299 ft 261 kts 14°
2026-05-05 14:12 -19.25888 -43.42893 25295 ft 262 kts 15°
2026-05-05 14:13 -19.24146 -43.42283 25294 ft 262 kts 14°
2026-05-05 14:13 -19.22424 -43.41680 25293 ft 262 kts 14°
2026-05-05 14:13 -19.20686 -43.41071 25292 ft 262 kts 14°
2026-05-05 14:13 -19.18937 -43.40458 25292 ft 262 kts 14°
2026-05-05 14:14 -19.17208 -43.39852 25293 ft 262 kts 14°
2026-05-05 14:14 -19.15484 -43.39248 25291 ft 262 kts 14°
2026-05-05 14:14 -19.13752 -43.38642 25287 ft 262 kts 14°
2026-05-05 14:14 -19.12015 -43.38035 25285 ft 262 kts 14°
2026-05-05 14:15 -19.10269 -43.37424 25288 ft 262 kts 14°
2026-05-05 14:15 -19.08527 -43.36812 25286 ft 262 kts 15°
2026-05-05 14:15 -19.07369 -43.36409 25285 ft 262 kts 14°
2026-05-05 14:15 -19.05061 -43.35601 25280 ft 263 kts 14°
2026-05-05 14:16 -19.03331 -43.34994 25282 ft 262 kts 14°
2026-05-05 14:16 -19.01584 -43.34383 25275 ft 262 kts 14°
2026-05-05 14:16 -18.99831 -43.33771 25275 ft 262 kts 14°
2026-05-05 14:16 -18.98103 -43.33168 25273 ft 261 kts 14°
2026-05-05 14:17 -18.96358 -43.32557 25274 ft 261 kts 14°
2026-05-05 14:17 -18.94645 -43.31959 25277 ft 261 kts 14°
2026-05-05 14:17 -18.92908 -43.31353 25276 ft 261 kts 14°
2026-05-05 14:17 -18.91179 -43.30750 25278 ft 260 kts 14°
2026-05-05 14:18 -18.89472 -43.30154 25274 ft 260 kts 14°
2026-05-05 14:18 -18.87754 -43.29553 25273 ft 260 kts 14°
2026-05-05 14:18 -18.86024 -43.28949 25273 ft 260 kts 14°
2026-05-05 14:18 -18.84304 -43.28350 25274 ft 259 kts 14°
2026-05-05 14:19 -18.82572 -43.27745 25274 ft 259 kts 14°
2026-05-05 14:19 -18.80854 -43.27147 25274 ft 259 kts 14°
2026-05-05 14:19 -18.79147 -43.26550 25276 ft 259 kts 14°
2026-05-05 14:19 -18.77424 -43.25950 25277 ft 259 kts 14°
2026-05-05 14:20 -18.75723 -43.25355 25275 ft 259 kts 14°
2026-05-05 14:20 -18.73996 -43.24754 25277 ft 258 kts 14°
2026-05-05 14:20 -18.72305 -43.24166 25276 ft 258 kts 14°
2026-05-05 14:20 -18.70577 -43.23562 25278 ft 258 kts 14°
2026-05-05 14:21 -18.68880 -43.22973 25281 ft 258 kts 13°
2026-05-05 14:21 -18.67168 -43.22397 25282 ft 258 kts 13°
2026-05-05 14:21 -18.65443 -43.21830 25285 ft 257 kts 13°
2026-05-05 14:21 -18.63750 -43.21275 25286 ft 257 kts 13°
2026-05-05 14:22 -18.62030 -43.20708 25287 ft 258 kts 13°
2026-05-05 14:22 -18.60312 -43.20145 25286 ft 258 kts 13°
2026-05-05 14:22 -18.58583 -43.19575 25284 ft 258 kts 13°
2026-05-05 14:22 -18.56867 -43.19011 25287 ft 258 kts 13°
2026-05-05 14:23 -18.55150 -43.18446 25291 ft 258 kts 13°
2026-05-05 14:23 -18.53438 -43.17885 25292 ft 258 kts 13°
2026-05-05 14:23 -18.51718 -43.17318 25291 ft 258 kts 13°
2026-05-05 14:23 -18.50025 -43.16763 25294 ft 258 kts 13°
2026-05-05 14:24 -18.48283 -43.16193 25296 ft 258 kts 13°
2026-05-05 14:24 -18.46583 -43.15632 25296 ft 257 kts 13°
2026-05-05 14:24 -18.44871 -43.15070 25300 ft 257 kts 13°
2026-05-05 14:24 -18.43163 -43.14511 25299 ft 258 kts 13°
2026-05-05 14:25 -18.41429 -43.13942 25295 ft 258 kts 13°
2026-05-05 14:25 -18.39725 -43.13383 25297 ft 258 kts 13°
2026-05-05 14:25 -18.38012 -43.12781 25299 ft 259 kts 16°
2026-05-05 14:25 -18.36324 -43.12111 25300 ft 259 kts 16°
2026-05-05 14:26 -18.34638 -43.11447 25299 ft 259 kts 16°
2026-05-05 14:26 -18.32953 -43.10783 25301 ft 259 kts 17°
2026-05-05 14:26 -18.31248 -43.10115 25296 ft 259 kts 16°
2026-05-05 14:26 -18.29560 -43.09449 25292 ft 260 kts 17°
2026-05-05 14:27 -18.27853 -43.08779 25288 ft 260 kts 16°
2026-05-05 14:27 -18.26161 -43.08113 25287 ft 260 kts 16°
2026-05-05 14:27 -18.24476 -43.07451 25287 ft 260 kts 16°
2026-05-05 14:27 -18.22768 -43.06781 25284 ft 260 kts 16°
2026-05-05 14:28 -18.21079 -43.06116 25283 ft 259 kts 16°
2026-05-05 14:28 -18.19384 -43.05451 25285 ft 259 kts 16°
2026-05-05 14:28 -18.17676 -43.04782 25286 ft 259 kts 16°
2026-05-05 14:28 -18.15998 -43.04123 25287 ft 259 kts 16°
2026-05-05 14:29 -18.14310 -43.03460 25285 ft 259 kts 16°
2026-05-05 14:29 -18.13169 -43.03014 25285 ft 259 kts 16°
2026-05-05 14:29 -18.10920 -43.02132 25286 ft 259 kts 16°
2026-05-05 14:29 -18.09214 -43.01461 25287 ft 259 kts 16°
2026-05-05 14:30 -18.07522 -43.00800 25288 ft 259 kts 16°
2026-05-05 14:30 -18.05822 -43.00132 25287 ft 259 kts 16°
2026-05-05 14:30 -18.04149 -42.99478 25290 ft 259 kts 16°
2026-05-05 14:30 -18.02450 -42.98811 25291 ft 259 kts 16°
2026-05-05 14:31 -18.00748 -42.98145 25294 ft 259 kts 16°
2026-05-05 14:31 -17.99050 -42.97479 25293 ft 259 kts 16°
2026-05-05 14:31 -17.97357 -42.96817 25294 ft 259 kts 16°
2026-05-05 14:31 -17.95659 -42.96153 25294 ft 260 kts 16°
2026-05-05 14:32 -17.94529 -42.95711 25292 ft 259 kts 16°
2026-05-05 14:32 -17.92291 -42.94836 25292 ft 259 kts 16°
2026-05-05 14:32 -17.90581 -42.94166 25291 ft 259 kts 16°
2026-05-05 14:32 -17.89448 -42.93723 25291 ft 259 kts 16°
2026-05-05 14:33 -17.87191 -42.92841 25288 ft 259 kts 16°
2026-05-05 14:33 -17.85496 -42.92176 25287 ft 259 kts 16°
2026-05-05 14:33 -17.83798 -42.91514 25285 ft 259 kts 16°
2026-05-05 14:33 -17.82120 -42.90859 25285 ft 258 kts 16°
2026-05-05 14:34 -17.80438 -42.90200 25285 ft 258 kts 16°
2026-05-05 14:34 -17.79310 -42.89758 25285 ft 258 kts 16°
2026-05-05 14:34 -17.77042 -42.88874 25280 ft 258 kts 16°
2026-05-05 14:34 -17.75354 -42.88216 25277 ft 258 kts 16°
2026-05-05 14:35 -17.73663 -42.87554 25277 ft 258 kts 16°
2026-05-05 14:35 -17.71976 -42.86896 25275 ft 258 kts 16°
2026-05-05 14:35 -17.70304 -42.86245 25276 ft 258 kts 16°
2026-05-05 14:35 -17.68605 -42.85580 25274 ft 259 kts 16°
2026-05-05 14:36 -17.66916 -42.84922 25273 ft 258 kts 16°
2026-05-05 14:36 -17.65235 -42.84266 25272 ft 258 kts 17°
2026-05-05 14:36 -17.63530 -42.83602 25271 ft 258 kts 17°
2026-05-05 14:36 -17.62425 -42.83172 25270 ft 258 kts 16°
2026-05-05 14:37 -17.60162 -42.82289 25268 ft 258 kts 17°
2026-05-05 14:37 -17.58464 -42.81626 25269 ft 258 kts 16°
2026-05-05 14:37 -17.56795 -42.80976 25265 ft 258 kts 17°
2026-05-05 14:37 -17.55098 -42.80316 25261 ft 258 kts 17°
2026-05-05 14:38 -17.53422 -42.79664 25258 ft 258 kts 17°
2026-05-05 14:38 -17.51722 -42.79000 25260 ft 258 kts 17°
2026-05-05 14:38 -17.50026 -42.78341 25254 ft 258 kts 17°
2026-05-05 14:38 -17.48348 -42.77687 25253 ft 258 kts 17°
2026-05-05 14:39 -17.46662 -42.77031 25254 ft 258 kts 17°
2026-05-05 14:39 -17.44964 -42.76371 25256 ft 258 kts 16°
2026-05-05 14:39 -17.43285 -42.75718 25254 ft 258 kts 17°
2026-05-05 14:39 -17.41602 -42.75065 25253 ft 258 kts 17°
2026-05-05 14:40 -17.39900 -42.74406 25253 ft 258 kts 17°
2026-05-05 14:40 -17.38211 -42.73748 25254 ft 258 kts 17°
2026-05-05 14:40 -17.36530 -42.73095 25255 ft 258 kts 17°
2026-05-05 14:40 -17.34827 -42.72434 25255 ft 258 kts 17°
2026-05-05 14:41 -17.33701 -42.71995 25253 ft 258 kts 17°
2026-05-05 14:41 -17.31458 -42.71126 25251 ft 258 kts 17°
2026-05-05 14:41 -17.29781 -42.70476 25252 ft 258 kts 17°
2026-05-05 14:41 -17.28064 -42.69809 25252 ft 258 kts 17°
2026-05-05 14:42 -17.26368 -42.69153 25251 ft 258 kts 17°
2026-05-05 14:42 -17.24665 -42.68491 25253 ft 258 kts 17°
2026-05-05 14:42 -17.22919 -42.67813 25256 ft 258 kts 17°
2026-05-05 14:42 -17.21185 -42.67142 25257 ft 258 kts 17°
2026-05-05 14:43 -17.19456 -42.66472 25261 ft 258 kts 17°
2026-05-05 14:43 -17.17777 -42.65820 25263 ft 257 kts 17°
2026-05-05 14:43 -17.16092 -42.65169 25267 ft 257 kts 17°
2026-05-05 14:43 -17.14402 -42.64513 25265 ft 258 kts 17°
2026-05-05 14:44 -17.13276 -42.64078 25265 ft 258 kts 17°
2026-05-05 14:44 -17.11025 -42.63204 25264 ft 258 kts 17°
2026-05-05 14:44 -17.09332 -42.62552 25264 ft 258 kts 17°
2026-05-05 14:44 -17.07652 -42.61901 25260 ft 258 kts 17°
2026-05-05 14:45 -17.05968 -42.61249 25260 ft 258 kts 17°
2026-05-05 14:45 -17.04276 -42.60594 25256 ft 258 kts 17°
2026-05-05 14:45 -17.02581 -42.59939 25254 ft 258 kts 17°
2026-05-05 14:45 -17.00897 -42.59285 25250 ft 258 kts 17°
2026-05-05 14:46 -16.99225 -42.58640 25253 ft 258 kts 17°
2026-05-05 14:46 -16.97538 -42.57987 25253 ft 258 kts 17°
2026-05-05 14:46 -16.95837 -42.57330 25252 ft 258 kts 17°
2026-05-05 14:46 -16.94161 -42.56684 25255 ft 258 kts 17°
2026-05-05 14:47 -16.92472 -42.56031 25256 ft 258 kts 17°
2026-05-05 14:47 -16.90794 -42.55383 25258 ft 258 kts 17°
2026-05-05 14:47 -16.89100 -42.54727 25252 ft 258 kts 17°
2026-05-05 14:47 -16.87428 -42.54081 25250 ft 257 kts 17°
2026-05-05 14:48 -16.86299 -42.53645 25250 ft 257 kts 17°
2026-05-05 14:48 -16.84041 -42.52775 25251 ft 257 kts 17°
2026-05-05 14:48 -16.82365 -42.52128 25253 ft 257 kts 17°
2026-05-05 14:48 -16.80674 -42.51475 25254 ft 257 kts 17°
2026-05-05 14:49 -16.78998 -42.50830 25252 ft 257 kts 18°
2026-05-05 14:49 -16.77324 -42.50184 25253 ft 257 kts 17°
2026-05-05 14:49 -16.75628 -42.49528 25253 ft 256 kts 17°
2026-05-05 14:49 -16.73955 -42.48884 25255 ft 256 kts 17°
2026-05-05 14:50 -16.72835 -42.48452 25256 ft 256 kts 17°
2026-05-05 14:50 -16.70598 -42.47591 25256 ft 256 kts 17°
2026-05-05 14:50 -16.68927 -42.46946 25256 ft 256 kts 17°
2026-05-05 14:50 -16.67266 -42.46307 25256 ft 256 kts 17°
2026-05-05 14:51 -16.65576 -42.45654 25256 ft 256 kts 17°
2026-05-05 14:51 -16.63900 -42.45010 25255 ft 256 kts 17°
2026-05-05 14:51 -16.62231 -42.44364 25255 ft 256 kts 18°
2026-05-05 14:51 -16.60564 -42.43721 25257 ft 256 kts 17°
2026-05-05 14:52 -16.58884 -42.43071 25256 ft 256 kts 17°
2026-05-05 14:52 -16.57210 -42.42426 25254 ft 256 kts 17°
2026-05-05 14:52 -16.55541 -42.41783 25253 ft 256 kts 17°
2026-05-05 14:52 -16.53866 -42.41140 25252 ft 256 kts 17°
2026-05-05 14:53 -16.52210 -42.40502 25252 ft 256 kts 17°
2026-05-05 14:53 -16.50522 -42.39854 25253 ft 256 kts 17°
2026-05-05 14:53 -16.48862 -42.39215 25250 ft 256 kts 18°
2026-05-05 14:53 -16.47743 -42.38784 25250 ft 256 kts 18°
2026-05-05 14:54 -16.45506 -42.37924 25251 ft 256 kts 18°
2026-05-05 14:54 -16.43840 -42.37284 25251 ft 256 kts 18°
2026-05-05 14:54 -16.42156 -42.36637 25247 ft 256 kts 18°
2026-05-05 14:54 -16.41054 -42.36213 25247 ft 256 kts 17°
2026-05-05 14:55 -16.38811 -42.35352 25244 ft 256 kts 18°
2026-05-05 14:55 -16.37157 -42.34716 25237 ft 256 kts 17°
2026-05-05 14:55 -16.35459 -42.34063 25234 ft 255 kts 17°
2026-05-05 14:55 -16.33798 -42.33426 25235 ft 255 kts 17°
2026-05-05 14:56 -16.32683 -42.32998 25234 ft 255 kts 17°
2026-05-05 14:56 -16.30449 -42.32140 25235 ft 255 kts 17°
2026-05-05 14:56 -16.28786 -42.31504 25234 ft 254 kts 17°
2026-05-05 14:56 -16.27121 -42.30865 25236 ft 254 kts 17°
2026-05-05 14:57 -16.25467 -42.30230 25239 ft 254 kts 17°
2026-05-05 14:57 -16.23797 -42.29590 25235 ft 254 kts 17°
2026-05-05 14:57 -16.22133 -42.28953 25236 ft 254 kts 17°
2026-05-05 14:57 -16.20477 -42.28316 25236 ft 254 kts 17°
2026-05-05 14:58 -16.19369 -42.27892 25238 ft 253 kts 17°
2026-05-05 14:58 -16.17167 -42.27048 25237 ft 253 kts 17°
2026-05-05 14:58 -16.16053 -42.26620 25236 ft 253 kts 18°
2026-05-05 14:58 -16.14440 -42.25851 25236 ft 254 kts 24°
2026-05-05 14:59 -16.12337 -42.24778 25236 ft 254 kts 23°
2026-05-05 14:59 -16.10728 -42.23959 25236 ft 254 kts 23°
2026-05-05 14:59 -16.09145 -42.23154 25238 ft 254 kts 23°
2026-05-05 14:59 -16.07561 -42.22349 25238 ft 254 kts 24°
2026-05-05 15:00 -16.05956 -42.21536 25239 ft 254 kts 23°
2026-05-05 15:00 -16.04904 -42.21000 25241 ft 254 kts 23°
2026-05-05 15:00 -16.02772 -42.19920 25243 ft 254 kts 23°
2026-05-05 15:00 -16.01179 -42.19112 25242 ft 254 kts 23°
2026-05-05 15:01 -15.99586 -42.18306 25244 ft 254 kts 23°
2026-05-05 15:01 -15.98007 -42.17506 25247 ft 254 kts 23°
2026-05-05 15:01 -15.96420 -42.16700 25249 ft 254 kts 23°
2026-05-05 15:01 -15.94815 -42.15888 25247 ft 254 kts 24°
2026-05-05 15:02 -15.93227 -42.15083 25252 ft 254 kts 24°
2026-05-05 15:02 -15.91635 -42.14276 25253 ft 254 kts 24°
2026-05-05 15:02 -15.90053 -42.13473 25259 ft 254 kts 23°
2026-05-05 15:02 -15.88454 -42.12664 25263 ft 254 kts 23°
2026-05-05 15:03 -15.86862 -42.11858 25269 ft 253 kts 23°
2026-05-05 15:03 -15.85267 -42.11051 25273 ft 253 kts 23°
2026-05-05 15:03 -15.83676 -42.10247 25273 ft 254 kts 23°
2026-05-05 15:03 -15.82089 -42.09443 25274 ft 254 kts 23°
2026-05-05 15:04 -15.80504 -42.08642 25276 ft 254 kts 23°
2026-05-05 15:04 -15.78914 -42.07837 25274 ft 254 kts 24°
2026-05-05 15:04 -15.77327 -42.07035 25276 ft 254 kts 23°
2026-05-05 15:04 -15.75718 -42.06221 25277 ft 254 kts 23°
2026-05-05 15:05 -15.72544 -42.04617 25274 ft 254 kts 23°
2026-05-05 15:05 -15.70924 -42.03798 25273 ft 255 kts 23°
2026-05-05 15:05 -15.69321 -42.02989 25271 ft 254 kts 21°
2026-05-05 15:06 -15.67635 -42.02522 25275 ft 250 kts
2026-05-05 15:06 -15.65916 -42.02194 25272 ft 250 kts
2026-05-05 15:06 -15.64774 -42.01992 25267 ft 250 kts
2026-05-05 15:06 -15.63047 -42.01704 25260 ft 251 kts
2026-05-05 15:07 -15.60745 -42.01331 25254 ft 251 kts
2026-05-05 15:07 -15.58995 -42.01053 25250 ft 251 kts
2026-05-05 15:07 -15.57254 -42.00775 25249 ft 251 kts
2026-05-05 15:07 -15.55515 -42.00500 25244 ft 251 kts
2026-05-05 15:08 -15.53776 -42.00228 25243 ft 251 kts
2026-05-05 15:08 -15.52636 -42.00049 25242 ft 251 kts
2026-05-05 15:08 -15.50319 -41.99684 25239 ft 250 kts
2026-05-05 15:08 -15.48593 -41.99414 25237 ft 250 kts
2026-05-05 15:09 -15.46868 -41.99141 25237 ft 250 kts
2026-05-05 15:09 -15.45133 -41.98870 25240 ft 250 kts
2026-05-05 15:09 -15.43408 -41.98600 25240 ft 250 kts
2026-05-05 15:09 -15.41667 -41.98324 25244 ft 250 kts
2026-05-05 15:10 -15.40521 -41.98145 25244 ft 250 kts
2026-05-05 15:10 -15.38235 -41.97787 25247 ft 250 kts
2026-05-05 15:10 -15.37082 -41.97606 25250 ft 250 kts
2026-05-05 15:10 -15.34785 -41.97245 25251 ft 250 kts
2026-05-05 15:11 -15.33047 -41.96973 25253 ft 250 kts
2026-05-05 15:11 -15.31325 -41.96703 25254 ft 250 kts
2026-05-05 15:11 -15.29602 -41.96433 25256 ft 250 kts
2026-05-05 15:11 -15.27882 -41.96165 25256 ft 250 kts
2026-05-05 15:12 -15.26162 -41.95895 25254 ft 250 kts
2026-05-05 15:12 -15.24443 -41.95627 25257 ft 250 kts
2026-05-05 15:12 -15.22712 -41.95353 25258 ft 250 kts
2026-05-05 15:12 -15.20979 -41.95084 25257 ft 250 kts
2026-05-05 15:13 -15.19264 -41.94815 25255 ft 250 kts
2026-05-05 15:13 -15.18102 -41.94632 25253 ft 250 kts
2026-05-05 15:13 -15.16389 -41.94364 25251 ft 250 kts
2026-05-05 15:13 -15.14097 -41.94006 25251 ft 250 kts
2026-05-05 15:14 -15.12354 -41.93733 25249 ft 250 kts
2026-05-05 15:14 -15.10625 -41.93460 25248 ft 250 kts
2026-05-05 15:14 -15.09467 -41.93281 25247 ft 250 kts
2026-05-05 15:14 -15.07735 -41.93010 25247 ft 251 kts
2026-05-05 15:15 -15.05420 -41.92649 25246 ft 251 kts
2026-05-05 15:15 -15.03658 -41.92373 25244 ft 251 kts
2026-05-05 15:15 -15.01942 -41.92105 25240 ft 251 kts
2026-05-05 15:15 -15.00187 -41.91829 25236 ft 251 kts
2026-05-05 15:16 -14.99040 -41.91651 25236 ft 251 kts
2026-05-05 15:16 -14.97305 -41.91379 25234 ft 251 kts
2026-05-05 15:16 -14.95596 -41.91112 25234 ft 251 kts
2026-05-05 15:16 -14.93285 -41.90751 25232 ft 251 kts
2026-05-05 15:17 -14.92116 -41.90569 25233 ft 250 kts
2026-05-05 15:17 -14.90374 -41.90298 25234 ft 250 kts
2026-05-05 15:17 -14.88644 -41.90026 25234 ft 250 kts
2026-05-05 15:17 -14.86341 -41.89668 25231 ft 250 kts
2026-05-05 15:18 -14.85183 -41.89487 25227 ft 250 kts
2026-05-05 15:18 -14.83458 -41.89216 25225 ft 250 kts
2026-05-05 15:18 -14.81160 -41.88858 25225 ft 250 kts
2026-05-05 15:18 -14.79440 -41.88591 25226 ft 250 kts
2026-05-05 15:19 -14.77704 -41.88320 25223 ft 250 kts
2026-05-05 15:19 -14.75984 -41.88050 25212 ft 250 kts
2026-05-05 15:19 -14.74840 -41.87873 25213 ft 250 kts
2026-05-05 15:19 -14.72543 -41.87515 25213 ft 250 kts
2026-05-05 15:20 -14.71374 -41.87333 25212 ft 250 kts
2026-05-05 15:20 -14.69091 -41.86977 25209 ft 249 kts
2026-05-05 15:20 -14.67358 -41.86708 25210 ft 249 kts
2026-05-05 15:20 -14.65650 -41.86440 25210 ft 249 kts
2026-05-05 15:21 -14.63918 -41.86170 25207 ft 249 kts
2026-05-05 15:21 -14.62197 -41.85903 25202 ft 249 kts
2026-05-05 15:21 -14.60473 -41.85633 25201 ft 249 kts
2026-05-05 15:21 -14.59320 -41.85454 25200 ft 249 kts
2026-05-05 15:22 -14.57025 -41.85099 25200 ft 249 kts
2026-05-05 15:22 -14.55292 -41.84828 25196 ft 249 kts
2026-05-05 15:22 -14.53569 -41.84560 25187 ft 249 kts
2026-05-05 15:22 -14.52426 -41.84382 25186 ft 249 kts
2026-05-05 15:23 -14.50708 -41.84114 25190 ft 249 kts
2026-05-05 15:23 -14.48420 -41.83759 25188 ft 249 kts
2026-05-05 15:23 -14.46687 -41.83490 25183 ft 249 kts
2026-05-05 15:23 -14.44962 -41.83219 25180 ft 249 kts
2026-05-05 15:24 -14.43255 -41.82955 25179 ft 249 kts
2026-05-05 15:24 -14.41535 -41.82688 25178 ft 249 kts
2026-05-05 15:24 -14.40395 -41.82510 25176 ft 249 kts
2026-05-05 15:24 -14.38092 -41.82153 25169 ft 249 kts
2026-05-05 15:25 -14.36367 -41.81884 25169 ft 249 kts
2026-05-05 15:25 -14.34656 -41.81619 25170 ft 249 kts
2026-05-05 15:25 -14.32948 -41.81354 25165 ft 249 kts
2026-05-05 15:25 -14.31235 -41.81089 25159 ft 249 kts
2026-05-05 15:26 -14.29521 -41.80824 25155 ft 249 kts
2026-05-05 15:26 -14.27787 -41.80554 25158 ft 248 kts
2026-05-05 15:26 -14.26652 -41.80376 25157 ft 248 kts
2026-05-05 15:26 -14.24371 -41.80023 25152 ft 248 kts
2026-05-05 15:27 -14.23227 -41.79845 25149 ft 248 kts
2026-05-05 15:27 -14.20921 -41.79487 25146 ft 248 kts
2026-05-05 15:27 -14.19779 -41.79308 25149 ft 248 kts
2026-05-05 15:27 -14.17497 -41.78956 25149 ft 248 kts
2026-05-05 15:28 -14.15785 -41.78690 25144 ft 248 kts
2026-05-05 15:28 -14.14081 -41.78425 25143 ft 248 kts
2026-05-05 15:28 -14.12355 -41.78157 25141 ft 248 kts
2026-05-05 15:28 -14.10636 -41.77891 25138 ft 248 kts
2026-05-05 15:29 -14.08944 -41.77630 25137 ft 248 kts
2026-05-05 15:29 -14.07223 -41.77364 25132 ft 248 kts
2026-05-05 15:29 -14.06093 -41.77189 25133 ft 248 kts
2026-05-05 15:29 -14.03792 -41.76832 25133 ft 247 kts
2026-05-05 15:30 -14.02107 -41.76570 25135 ft 247 kts
2026-05-05 15:30 -14.00381 -41.76303 25135 ft 247 kts
2026-05-05 15:30 -13.98673 -41.76038 25134 ft 247 kts
2026-05-05 15:30 -13.96989 -41.75779 25129 ft 247 kts
2026-05-05 15:31 -13.95282 -41.75514 25130 ft 247 kts
2026-05-05 15:31 -13.93567 -41.75247 25132 ft 247 kts
2026-05-05 15:31 -13.92433 -41.75072 25134 ft 247 kts
2026-05-05 15:31 -13.90165 -41.74721 25134 ft 247 kts
2026-05-05 15:32 -13.89023 -41.74544 25132 ft 247 kts
2026-05-05 15:32 -13.86753 -41.74194 25136 ft 246 kts
2026-05-05 15:32 -13.85042 -41.73929 25137 ft 246 kts
2026-05-05 15:32 -13.83352 -41.73668 25140 ft 246 kts
2026-05-05 15:33 -13.81646 -41.73403 25141 ft 246 kts
2026-05-05 15:33 -13.79934 -41.73139 25143 ft 246 kts
2026-05-05 15:33 -13.78255 -41.72879 25146 ft 246 kts
2026-05-05 15:33 -13.77104 -41.72702 25146 ft 246 kts
2026-05-05 15:34 -13.74842 -41.72352 25148 ft 246 kts
2026-05-05 15:34 -13.73164 -41.72093 25149 ft 246 kts
2026-05-05 15:34 -13.71455 -41.71829 25154 ft 245 kts
2026-05-05 15:34 -13.69763 -41.71567 25157 ft 245 kts
2026-05-05 15:35 -13.68071 -41.71307 25161 ft 245 kts
2026-05-05 15:35 -13.66385 -41.71046 25163 ft 245 kts
2026-05-05 15:35 -13.64679 -41.70781 25163 ft 245 kts
2026-05-05 15:35 -13.63001 -41.70522 25165 ft 245 kts
2026-05-05 15:36 -13.61307 -41.70263 25168 ft 245 kts
2026-05-05 15:36 -13.59611 -41.70000 25168 ft 245 kts
2026-05-05 15:36 -13.58468 -41.69825 25171 ft 245 kts
2026-05-05 15:36 -13.56792 -41.69564 25176 ft 245 kts
2026-05-05 15:37 -13.54541 -41.69218 25177 ft 245 kts
2026-05-05 15:37 -13.53401 -41.69041 25179 ft 245 kts
2026-05-05 15:37 -13.51153 -41.68696 25181 ft 245 kts
2026-05-05 15:37 -13.49446 -41.68430 25183 ft 245 kts
2026-05-05 15:38 -13.47770 -41.68175 25185 ft 245 kts
2026-05-05 15:38 -13.46637 -41.67999 25187 ft 245 kts
2026-05-05 15:38 -13.44376 -41.67650 25189 ft 245 kts
2026-05-05 15:38 -13.42691 -41.67393 25189 ft 245 kts
2026-05-05 15:39 -13.41002 -41.67132 25192 ft 245 kts
2026-05-05 15:39 -13.39301 -41.66869 25195 ft 245 kts
2026-05-05 15:39 -13.38177 -41.66695 25196 ft 245 kts
2026-05-05 15:39 -13.35938 -41.66351 25199 ft 245 kts
2026-05-05 15:40 -13.34808 -41.66177 25199 ft 245 kts
2026-05-05 15:40 -13.33116 -41.65915 25200 ft 245 kts
2026-05-05 15:40 -13.31417 -41.65655 25202 ft 245 kts
2026-05-05 15:40 -13.29721 -41.65393 25197 ft 245 kts
2026-05-05 15:41 -13.27469 -41.65043 25206 ft 245 kts
2026-05-05 15:41 -13.25766 -41.64784 24994 ft 254 kts
2026-05-05 15:41 -13.24551 -41.64599 24661 ft 265 kts
2026-05-05 15:41 -13.22093 -41.64224 24024 ft 275 kts
2026-05-05 15:42 -13.20819 -41.64027 23698 ft 278 kts
2026-05-05 15:42 -13.18884 -41.63730 23210 ft 283 kts
2026-05-05 15:42 -13.16247 -41.63325 22557 ft 287 kts
2026-05-05 15:42 -13.14931 -41.63123 22238 ft 288 kts
2026-05-05 15:43 -13.12948 -41.62815 21763 ft 290 kts
2026-05-05 15:43 -13.10946 -41.62506 21285 ft 291 kts
2026-05-05 15:43 -13.08272 -41.62094 20655 ft 291 kts
2026-05-05 15:43 -13.06253 -41.61784 20157 ft 290 kts
2026-05-05 15:44 -13.04930 -41.61581 19687 ft 286 kts
2026-05-05 15:44 -13.02356 -41.61188 18722 ft 277 kts
2026-05-05 15:44 -13.00474 -41.60900 18020 ft 271 kts 10°
2026-05-05 15:44 -12.99243 -41.60711 17544 ft 268 kts 10°
2026-05-05 15:45 -12.97402 -41.60427 16868 ft 263 kts 11°
2026-05-05 15:45 -12.95650 -41.60159 16725 ft 251 kts 11°
2026-05-05 15:45 -12.93949 -41.59896 16661 ft 241 kts 11°
2026-05-05 15:45 -12.91783 -41.59563 16641 ft 230 kts 11°
2026-05-05 15:46 -12.90715 -41.59400 16635 ft 226 kts 11°
2026-05-05 15:46 -12.89169 -41.59164 16570 ft 223 kts 11°
2026-05-05 15:46 -12.87622 -41.58924 16381 ft 227 kts 11°
2026-05-05 15:46 -12.86063 -41.58685 16073 ft 227 kts 11°
2026-05-05 15:47 -12.83959 -41.58362 15617 ft 229 kts 11°
2026-05-05 15:47 -12.82902 -41.58199 15356 ft 230 kts 11°
2026-05-05 15:47 -12.81305 -41.57955 14980 ft 224 kts 11°
2026-05-05 15:47 -12.79358 -41.57661 14793 ft 196 kts 12°
2026-05-05 15:48 -12.78072 -41.57466 14792 ft 181 kts 12°
2026-05-05 15:48 -12.76818 -41.57269 14832 ft 182 kts 12°
2026-05-05 15:48 -12.75549 -41.57072 14815 ft 187 kts 12°
2026-05-05 15:48 -12.74209 -41.56864 14468 ft 208 kts 13°
2026-05-05 15:49 -12.72687 -41.56627 14027 ft 227 kts 12°
2026-05-05 15:49 -12.71640 -41.56468 13731 ft 236 kts 12°
2026-05-05 15:49 -12.69971 -41.56214 13259 ft 247 kts 12°
2026-05-05 15:49 -12.67686 -41.55867 12607 ft 242 kts 12°
2026-05-05 15:50 -12.66067 -41.55623 12126 ft 233 kts 13°
2026-05-05 15:50 -12.65001 -41.55459 11805 ft 229 kts 13°
2026-05-05 15:50 -12.62926 -41.55140 11151 ft 221 kts 13°
2026-05-05 15:50 -12.61921 -41.54987 10833 ft 218 kts 13°
2026-05-05 15:51 -12.60440 -41.54759 10365 ft 213 kts 13°
2026-05-05 15:51 -12.58994 -41.54538 9963 ft 206 kts 13°
2026-05-05 15:51 -12.57605 -41.54327 9618 ft 199 kts 14°
2026-05-05 15:51 -12.55827 -41.54054 9211 ft 188 kts 14°
2026-05-05 15:52 -12.54961 -41.53923 9011 ft 184 kts 14°
2026-05-05 15:52 -12.53697 -41.53728 8639 ft 183 kts 14°
2026-05-05 15:52 -12.52021 -41.53470 8150 ft 182 kts 14°
2026-05-05 15:52 -12.50773 -41.53279 7780 ft 181 kts 14°
2026-05-05 15:53 -12.49535 -41.53091 7415 ft 180 kts 14°
2026-05-05 15:53 -12.48706 -41.52962 7169 ft 179 kts 14°
2026-05-05 15:53 -12.47496 -41.52659 6797 ft 179 kts 36°
2026-05-05 15:53 -12.46309 -41.51556 6584 ft 166 kts 48°
2026-05-05 15:54 -12.45752 -41.51021 6438 ft 165 kts 50°
2026-05-05 15:54 -12.44651 -41.49936 6151 ft 164 kts 49°
2026-05-05 15:54 -12.44109 -41.49401 6007 ft 163 kts 49°
2026-05-05 15:54 -12.43283 -41.48589 5788 ft 163 kts 50°
2026-05-05 15:55 -12.42204 -41.47524 5495 ft 161 kts 50°
2026-05-05 15:55 -12.41402 -41.46733 5306 ft 158 kts 50°
2026-05-05 15:55 -12.40877 -41.46204 5292 ft 158 kts 56°
2026-05-05 15:55 -12.40543 -41.45197 5303 ft 153 kts 98°
2026-05-05 15:56 -12.40960 -41.44203 5297 ft 152 kts 117°
2026-05-05 15:56 -12.41433 -41.43157 4843 ft 178 kts 114°
2026-05-05 15:56 -12.42155 -41.41534 4089 ft 195 kts 114°
2026-05-05 15:56 -12.42533 -41.40678 3771 ft 198 kts 115°
2026-05-05 15:57 -12.43318 -41.39058 3478 ft 185 kts 115°
2026-05-05 15:57 -12.43826 -41.37871 3289 ft 178 kts 114°
2026-05-05 15:57 -12.44150 -41.37118 3221 ft 174 kts 113°
2026-05-05 15:57 -12.44797 -41.35575 2901 ft 176 kts 114°
2026-05-05 15:58 -12.45109 -41.34817 2784 ft 172 kts 113°
2026-05-05 15:58 -12.45591 -41.33715 2664 ft 163 kts 115°
2026-05-05 15:58 -12.46178 -41.32406 2487 ft 139 kts 116°
2026-05-05 15:58 -12.46560 -41.31540 2373 ft 125 kts 115°
2026-05-05 15:59 -12.46905 -41.30726 2206 ft 121 kts 116°
2026-05-05 15:59 -12.47124 -41.30221 2119 ft 113 kts 116°
2026-05-05 15:59 -12.47559 -41.29252 1868 ft 116 kts 117°
2026-05-05 15:59 -12.47878 -41.28500 1671 ft 117 kts 116°
2026-05-05 16:00 -12.48185 -41.27802 1627 ft 88 kts 114°
2026-05-05 16:00 -12.48291 -41.27552 1619 ft 15 kts 115°
2026-05-05 16:00 -12.48328 -41.27470 1617 ft 24 kts 115°
2026-05-05 16:00 -12.48408 -41.27321 1613 ft 11 kts 179°
2026-05-05 16:01 -12.48505 -41.27365 1612 ft 19 kts 206°
2026-05-05 16:01 -12.48586 -41.27374 1612 ft 6 kts 125°
2026-05-05 16:01 -12.48626 -41.27402 1612 ft 4 kts 295°
2026-05-05 16:01 -12.48621 -41.27413 1612 ft 0 kts 292°